This is the latest recevied weather packets stored in our database for station/object OE6ATD-13. If no packets are shown the sender has not sent any weather packets the latest 10 day(s).
| Time | Temp. | Humidity | Pressure | Rain* | Wind** | Luminosity | Snow |
|---|---|---|---|---|---|---|---|
| 1778002519 | 18.33° C | 53% | 1009.5 hPa | 0 mm | - | 20 W/m² | - |
| 1778001929 | 18.33° C | 52% | 1009.5 hPa | 0 mm | - | 48 W/m² | - |
| 1778001325 | 18.89° C | 51% | 1009.6 hPa | 0 mm | - | 24 W/m² | - |
| 1778000721 | 20° C | 49% | 1009.6 hPa | 0 mm | - | 30 W/m² | - |
| 1778000118 | 21.11° C | 48% | 1009.6 hPa | 0 mm | - | 152 W/m² | - |
| 1777999528 | 21.11° C | 47% | 1009.6 hPa | 0 mm | - | 174 W/m² | - |
| 1777998923 | 21.67° C | 46% | 1009.7 hPa | 0 mm | - | 199 W/m² | - |
| 1777998319 | 21.67° C | 47% | 1009.8 hPa | 0 mm | - | 230 W/m² | - |
| 1777997730 | 20.56° C | 47% | 1009.9 hPa | 0 mm | - | 193 W/m² | - |
| 1777997116 | 20° C | 47% | 1010.1 hPa | 0 mm | - | 144 W/m² | - |
| 1777996527 | 20.56° C | 47% | 1010.2 hPa | 0 mm | - | 132 W/m² | - |
| 1777995922 | 20° C | 47% | 1010.1 hPa | 0 mm | - | 135 W/m² | - |
| 1777995318 | 20° C | 47% | 1010 hPa | 0 mm | - | 133 W/m² | - |
| 1777994730 | 20° C | 45% | 1010 hPa | 0 mm | - | 152 W/m² | - |
| 1777994125 | 20° C | 45% | 1010 hPa | 0 mm | - | 153 W/m² | - |
| 1777993521 | 20° C | 44% | 1010.2 hPa | 0 mm | - | 151 W/m² | - |
| 1777992916 | 20° C | 44% | 1010.1 hPa | 0 mm | - | 150 W/m² | - |
| 1777992327 | 20.56° C | 44% | 1010.2 hPa | 0 mm | - | 165 W/m² | - |
| 1777991723 | 20.56° C | 43% | 1010.3 hPa | 0 mm | - | 184 W/m² | - |
| 1777991119 | 20.56° C | 42% | 1010.2 hPa | 0 mm | - | 142 W/m² | - |
| 1777990530 | 21.11° C | 42% | 1010.2 hPa | 0 mm | - | 174 W/m² | - |
| 1777989926 | 21.11° C | 42% | 1010.3 hPa | 0 mm | - | 214 W/m² | - |
| 1777989321 | 21.11° C | 42% | 1010.3 hPa | 0 mm | - | 194 W/m² | - |
| 1777988717 | 22.22° C | 41% | 1010.4 hPa | 0 mm | - | 202 W/m² | - |
| 1777988128 | 21.67° C | 41% | 1010.3 hPa | 0 mm | - | 241 W/m² | - |
* Rain latest hour (hover to see other rain measurements)
** Current wind speed in m/s (hover to see current wind gust speed)